Location: Bavegemberg
(50.9500°N, 3.8833°E)
Time: 17:33:27
(UTC+00:00)

FENGYUN 1C DEB - Visible Passes

Search period start: 18 January 2026 00:00
Search period end: 28 January 2026 00:00
Orbit: 838 x 894 km, 98.8° (Epoch: 17 January)

Date Brightness Start Highest point End Pass type
(mag) Time Alt. Az. Time Alt. Az. Time Alt. Az.
18 Jan ? 17:31:03 10° ESE 17:35:17 23° NE 17:39:39 10° N visible
18 Jan ? 19:13:21 37° S 19:15:44 78° WSW 19:21:29 10° NNW visible
18 Jan ? 20:55:38 12° WSW 20:57:40 14° W 21:00:42 10° NW visible
19 Jan ? 17:23:49 10° E 17:27:56 21° NE 17:32:03 10° N visible
19 Jan ? 19:05:27 32° SSE 19:08:17 87° WSW 19:14:01 10° NNW visible
19 Jan ? 20:47:45 13° WSW 20:50:05 17° W 20:53:38 10° NW visible
20 Jan ? 17:16:45 10° E 17:20:36 19° NE 17:24:25 10° N visible
20 Jan ? 18:57:33 27° SSE 19:00:50 83° ENE 19:06:34 10° NNW visible
20 Jan ? 20:39:51 14° WSW 20:42:31 19° W 20:46:28 10° NW visible
21 Jan ? 17:09:44 10° E 17:13:15 17° NE 17:16:46 10° NNE visible
21 Jan ? 18:49:38 22° SSE 18:53:23 75° ENE 18:59:05 10° NNW visible
21 Jan ? 20:31:56 14° SW 20:34:59 21° W 20:39:15 10° NW visible
22 Jan ? 17:02:45 10° E 17:05:55 15° NE 17:09:05 10° NNE visible
22 Jan ? 18:41:42 18° SSE 18:45:57 66° ENE 18:51:36 10° N visible
22 Jan ? 20:23:59 14° SW 20:27:26 24° W 20:31:59 10° NW visible
23 Jan ? 16:55:51 10° ENE 16:58:36 14° NE 17:01:20 10° NNE visible
23 Jan ? 18:33:43 14° SE 18:38:32 59° ENE 18:44:06 10° N visible
23 Jan ? 20:16:00 14° SW 20:19:53 27° W 20:24:41 10° NW visible
24 Jan ? 06:52:58 10° NE 06:56:40 18° E 07:00:19 10° SE visible
24 Jan ? 18:25:43 11° SE 18:31:06 52° ENE 18:36:36 10° N visible
24 Jan ? 20:08:00 13° SSW 20:12:22 31° W 20:17:21 10° NNW visible
25 Jan ? 06:45:51 10° NE 06:49:05 16° E 06:52:17 10° ESE visible
25 Jan ? 18:18:16 10° SE 18:23:42 47° ENE 18:29:06 10° N visible
25 Jan ? 19:59:57 11° SSW 20:04:51 35° W 20:10:00 10° NNW visible
26 Jan ? 06:38:50 10° NE 06:41:30 14° E 06:44:09 10° ESE visible
26 Jan ? 18:10:59 10° SE 18:16:17 42° ENE 18:21:35 10° N visible
26 Jan ? 19:52:01 10° SSW 19:57:20 39° W 20:02:38 10° NNW visible
27 Jan ? 06:32:03 10° ENE 06:33:55 12° E 06:35:47 10° ESE visible
27 Jan ? 18:03:43 10° SE 18:08:53 37° ENE 18:14:02 10° N visible
27 Jan ? 19:44:24 10° S 19:49:50 44° W 19:55:15 10° NNW visible
